DELTA 1 DEB, 40763

Orbit data source: Space-Track

DELTA 1 DEB, 40763 is space debris in SSO originally from a launch on Thu, 29 Jul 1976 UTC launched from the Air Force Western Test Range (AFWTR). Debris objects in space refer to the collection of defunct objects orbiting the Earth. Examples of debris include non-operational satellites, rocket bodies, and fragments generated from explosions, collisions, or faulty payload assembly.

Loading next visibility...
Identifier
40763, 1976-077GG
Orbit
SSO
Country
Flag of USUS
Related business
Manufacturer
Unknown
Mission
Spacecraft
Bus & Motor
Unknown
Mass
Unknown
Launch date (UTC)
1976-07-29 (50 years ago)
Launch vehicle
Unknown
Launch site
Air Force Western Test Range (AFWTR)
Object type
Payload
Rocket body
Debris
Shape & HBR
Unknown shape, 0.1 m
Radar Cross Section
Medium (>0.1 m² and <1 m²)

Expand to show TLE details & history
Last TLE update: 3 days ago

TLE from 3 days ago
0 DELTA 1 DEB
1 40763U 76077GG  26262.74288497  .00000278  00000-0  18742-2 0  9995
2 40763 101.5773 240.5066 0034381  13.9933 346.2088 12.59312308104028
Epoch: 2026-09-19T17:49Z
TLE epoch observation values (Epoch: 2026-09-19T17:49:45.261Z)
Latitude
-0.00007°
Longitude
-25.57902°
Altitude
1,402.32 km
Speed
7.171 km/s
True Right ascension
16h 02m 01s
True Declination
0° 00' 00"
Sunlit
Object was in daylight at epoch
Visualization orbit readout
Latitude
Unknown
Longitude
Unknown
Altitude
Unknown
Speed
Unknown
Apparent Right ascension
Unknown
Apparent Declination
Unknown
Sunlit
N/A
Visualization observer readout
Local Sidereal Time
19:29:59
Azimuth
Unknown
Elevation
Unknown
Doppler factor
Unknown
Orbital elements
Apogee altitude
1,450.131 km
Perigee altitude
1,396.487 km
Semi-major axis
7,801.446 km
Eccentricity
0.00344
Inclination
101.5773°
RAAN
240.5066°
Arg. of periapsis
13.9933°
True anomaly
346.11449°
Mean anomaly
346.2088°
Eccentric anomaly
346.16168°
Mean motion
3.14978 °/min
Orbital period
114.29 mins
BSTAR
0.0018742
Loading maneuver chart data...
Computing Atmospheric mass density...
Loading historical data...
Loading historical data...
Loading historical data...
Loading historical data...
Loading historical data...
Loading historical data...
Loading historical data...

Documentation

Showing up to 5 results
|